• In Germany
  • List of Countries
  • For 7 days
  • Water Temperature
  • Satellite Maps
  • Weather Map
  • Weather Widgets
  • user-avatar
    Login

    Hourly Weather Graz

    Today, 28 June, Wednesday

    Time Temperature Precipitation Wind Pressure Humidity
    00:00 +16°C° 0 mm 1 mps 718 mmHg 85%
    01:00 +18°C° 0 mm 1 mps 718 mmHg 86%
    02:00 +16°C° 0 mm 1 mps 717 mmHg 86%
    03:00 +16°C° 0 mm 1 mps 717 mmHg 86%
    04:00 +16°C° 0 mm 1 mps 717 mmHg 87%
    05:00 +19°C° 0 mm 1 mps 717 mmHg 81%
    06:00 +20°C° 0 mm 2 mps 716 mmHg 74%
    07:00 +23°C° 0 mm 1 mps 716 mmHg 63%
    08:00 +25°C° 0 mm 2 mps 716 mmHg 59%
    09:00 +27°C° 0 mm 3 mps 716 mmHg 55%
    10:00 +28°C° 0 mm 3 mps 716 mmHg 52%
    11:00 +29°C° 0 mm 4 mps 716 mmHg 50%
    12:00 +30°C° 0 mm 5 mps 715 mmHg 48%
    13:00 +32°C° 0 mm 6 mps 715 mmHg 47%
    14:00 +30°C° 0.1 mm 5 mps 715 mmHg 49%
    15:00 +29°C° 0.1 mm 5 mps 714 mmHg 52%
    16:00 +28°C° 0.1 mm 5 mps 714 mmHg 55%
    17:00 +26°C° 1.7 mm 4 mps 714 mmHg 68%
    18:00 +24°C° 1.7 mm 3 mps 713 mmHg 80%
    19:00 +21°C° 1.7 mm 1 mps 713 mmHg 93%
    20:00 +20°C° 1.4 mm 2 mps 713 mmHg 94%
    21:00 +19°C° 1.4 mm 2 mps 713 mmHg 96%
    22:00 +19°C° 1.4 mm 2 mps 713 mmHg 97%
    23:00 +19°C° 1.4 mm 2 mps 712 mmHg 97%

    Tomorrow, 29 June, Thursday

    Time Temperature Precipitation Wind Pressure Humidity
    00:00 +19°C° 1.4 mm 1 mps 712 mmHg 97%
    01:00 +19°C° 1.4 mm 1 mps 712 mmHg 97%
    02:00 +19°C° 0.3 mm 1 mps 711 mmHg 98%
    03:00 +19°C° 0.3 mm 1 mps 711 mmHg 98%
    04:00 +18°C° 0.3 mm 1 mps 710 mmHg 98%
    05:00 +18°C° 0.1 mm 2 mps 711 mmHg 96%
    06:00 +19°C° 0.1 mm 2 mps 711 mmHg 94%
    07:00 +20°C° 0.1 mm 2 mps 711 mmHg 92%
    08:00 +21°C° 0.1 mm 3 mps 712 mmHg 81%
    09:00 +23°C° 0.1 mm 4 mps 712 mmHg 70%
    10:00 +25°C° 0.1 mm 4 mps 713 mmHg 59%
    11:00 +25°C° 0.3 mm 5 mps 713 mmHg 59%
    12:00 +26°C° 0.3 mm 5 mps 713 mmHg 59%
    13:00 +26°C° 0.3 mm 5 mps 714 mmHg 58%
    14:00 +26°C° 0.4 mm 5 mps 714 mmHg 59%
    15:00 +25°C° 0.4 mm 5 mps 714 mmHg 60%
    16:00 +25°C° 0.4 mm 4 mps 714 mmHg 61%
    17:00 +23°C° 0.1 mm 4 mps 714 mmHg 65%
    18:00 +22°C° 0.1 mm 3 mps 714 mmHg 69%
    19:00 +21°C° 0.1 mm 2 mps 714 mmHg 72%
    20:00 +19°C° 0 mm 2 mps 715 mmHg 76%
    21:00 +17°C° 0 mm 2 mps 715 mmHg 80%
    22:00 +15°C° 0 mm 2 mps 715 mmHg 84%
    23:00 +15°C° 0 mm 2 mps 715 mmHg 86%

    Day after tomorrow, 30 June, Friday

    Time Temperature Precipitation Wind Pressure Humidity
    00:00 +14°C° 0 mm 1 mps 716 mmHg 87%
    01:00 +14°C° 0 mm 1 mps 716 mmHg 89%
    02:00 +13°C° 0 mm 1 mps 716 mmHg 90%
    03:00 +13°C° 0 mm 1 mps 716 mmHg 92%
    04:00 +13°C° 0 mm 1 mps 716 mmHg 93%
    05:00 +15°C° 0 mm 1 mps 717 mmHg 88%
    06:00 +18°C° 0 mm 1 mps 718 mmHg 83%
    07:00 +19°C° 0 mm 2 mps 718 mmHg 78%
    08:00 +20°C° 0.1 mm 2 mps 719 mmHg 71%
    09:00 +21°C° 0.1 mm 3 mps 719 mmHg 65%
    10:00 +22°C° 0.1 mm 3 mps 720 mmHg 58%
    11:00 +23°C° 0.1 mm 4 mps 720 mmHg 55%
    12:00 +25°C° 0.1 mm 4 mps 720 mmHg 52%
    13:00 +25°C° 0.1 mm 4 mps 720 mmHg 49%
    14:00 +25°C° 0.1 mm 4 mps 720 mmHg 49%
    15:00 +25°C° 0.1 mm 4 mps 720 mmHg 49%
    16:00 +25°C° 0.1 mm 4 mps 720 mmHg 48%
    17:00 +22°C° 0 mm 4 mps 719 mmHg 55%
    18:00 +21°C° 0 mm 3 mps 719 mmHg 61%
    19:00 +20°C° 0 mm 3 mps 719 mmHg 67%
    20:00 +18°C° 0 mm 2 mps 719 mmHg 72%
    21:00 +17°C° 0 mm 2 mps 719 mmHg 76%
    22:00 +16°C° 0 mm 2 mps 719 mmHg 80%
    23:00 +16°C° 0.1 mm 2 mps 719 mmHg 83%

    1 July, Saturday

    Time Temperature Precipitation Wind Pressure Humidity
    00:00 +15°C° 0.1 mm 1 mps 719 mmHg 87%
    01:00 +15°C° 0.1 mm 1 mps 719 mmHg 90%
    02:00 +15°C° 0.3 mm 1 mps 719 mmHg 92%
    03:00 +15°C° 0.3 mm 1 mps 719 mmHg 94%
    04:00 +15°C° 0.3 mm 1 mps 718 mmHg 95%
    05:00 +15°C° 0.7 mm 1 mps 719 mmHg 94%
    06:00 +16°C° 0.7 mm 1 mps 719 mmHg 92%
    07:00 +16°C° 0.7 mm 2 mps 719 mmHg 91%
    08:00 +19°C° 0.4 mm 1 mps 720 mmHg 82%
    09:00 +20°C° 0.4 mm 1 mps 720 mmHg 72%
    10:00 +21°C° 0.4 mm 1 mps 721 mmHg 63%
    11:00 +22°C° 0.3 mm 1 mps 721 mmHg 59%
    12:00 +24°C° 0.3 mm 1 mps 721 mmHg 56%
    13:00 +25°C° 0.3 mm 1 mps 721 mmHg 52%
    14:00 +24°C° 0.6 mm 1 mps 721 mmHg 58%
    15:00 +23°C° 0.6 mm 2 mps 721 mmHg 64%
    16:00 +23°C° 0.6 mm 2 mps 720 mmHg 69%
    17:00 +22°C° 0.7 mm 1 mps 720 mmHg 75%
    18:00 +21°C° 0.7 mm 1 mps 720 mmHg 81%
    19:00 +20°C° 0.7 mm 1 mps 720 mmHg 86%
    20:00 +18°C° 0.8 mm 1 mps 720 mmHg 88%
    21:00 +16°C° 0.8 mm 1 mps 721 mmHg 90%
    22:00 +15°C° 0.8 mm 1 mps 721 mmHg 92%
    23:00 +14°C° 0.5 mm 1 mps 721 mmHg 93%

    2 July, Sunday

    Time Temperature Precipitation Wind Pressure Humidity
    00:00 +14°C° 0.5 mm 1 mps 721 mmHg 94%
    01:00 +14°C° 0.5 mm 2 mps 721 mmHg 95%
    02:00 +14°C° 0.1 mm 1 mps 721 mmHg 94%
    03:00 +13°C° 0.1 mm 1 mps 721 mmHg 94%
    04:00 +13°C° 0.1 mm 1 mps 721 mmHg 93%
    05:00 +14°C° 0 mm 1 mps 722 mmHg 90%
    06:00 +15°C° 0 mm 1 mps 722 mmHg 87%
    07:00 +18°C° 0 mm 1 mps 722 mmHg 84%
    08:00 +19°C° 0.2 mm 1 mps 723 mmHg 79%
    09:00 +19°C° 0.2 mm 1 mps 723 mmHg 74%
    10:00 +20°C° 0.2 mm 1 mps 723 mmHg 69%
    11:00 +20°C° 0.1 mm 2 mps 724 mmHg 64%
    12:00 +21°C° 0.1 mm 2 mps 724 mmHg 58%
    13:00 +22°C° 0.1 mm 3 mps 724 mmHg 52%
    14:00 +22°C° 0 mm 3 mps 724 mmHg 52%
    15:00 +22°C° 0 mm 3 mps 724 mmHg 52%
    16:00 +22°C° 0 mm 3 mps 724 mmHg 51%
    17:00 +21°C° 0 mm 3 mps 724 mmHg 57%
    18:00 +19°C° 0 mm 2 mps 724 mmHg 63%
    19:00 +18°C° 0 mm 2 mps 725 mmHg 69%
    20:00 +16°C° 0 mm 2 mps 725 mmHg 74%
    21:00 +15°C° 0 mm 1 mps 725 mmHg 79%
    22:00 +13°C° 0 mm 1 mps 725 mmHg 84%
    23:00 +13°C° 0 mm 1 mps 725 mmHg 85%

    3 July, Monday

    Time Temperature Precipitation Wind Pressure Humidity
    00:00 +13°C° 0 mm 1 mps 725 mmHg 85%
    01:00 +13°C° 0 mm 1 mps 725 mmHg 85%
    02:00 +13°C° 0.1 mm 1 mps 725 mmHg 86%
    03:00 +13°C° 0.1 mm 1 mps 726 mmHg 87%
    04:00 +13°C° 0.1 mm 1 mps 726 mmHg 88%
    05:00 +15°C° 0.1 mm 1 mps 726 mmHg 83%
    06:00 +16°C° 0.1 mm 1 mps 726 mmHg 79%
    07:00 +19°C° 0.1 mm 1 mps 727 mmHg 74%
    08:00 +20°C° 0.1 mm 1 mps 727 mmHg 68%
    09:00 +20°C° 0.1 mm 2 mps 727 mmHg 63%
    10:00 +23°C° 0.1 mm 2 mps 727 mmHg 57%
    11:00 +23°C° 0.1 mm 2 mps 727 mmHg 54%
    12:00 +24°C° 0.1 mm 2 mps 727 mmHg 50%
    13:00 +25°C° 0.1 mm 2 mps 727 mmHg 47%
    14:00 +25°C° 0.1 mm 2 mps 726 mmHg 47%
    15:00 +25°C° 0.1 mm 2 mps 726 mmHg 47%
    16:00 +25°C° 0.1 mm 2 mps 726 mmHg 46%
    17:00 +23°C° 0.1 mm 2 mps 726 mmHg 56%
    18:00 +22°C° 0.1 mm 1 mps 726 mmHg 66%
    19:00 +20°C° 0.1 mm 1 mps 726 mmHg 76%
    20:00 +18°C° 0.1 mm 1 mps 727 mmHg 81%
    21:00 +15°C° 0.1 mm 1 mps 727 mmHg 86%
    22:00 +13°C° 0.1 mm 1 mps 727 mmHg 91%
    23:00 +12°C° 0 mm 1 mps 727 mmHg 92%
    Show more